TITAN 3C TRANSTAGE DEB, 1646

Orbit data source: Space-Track

TITAN 3C TRANSTAGE DEB, 1646 is space debris in LEO originally from a launch on Fri, 15 Oct 1965 UTC launched from the Air Force Eastern Test Range (AFETR). Debris objects in space refer to the collection of defunct objects orbiting the Earth. Examples of debris include non-operational satellites, rocket bodies, and fragments generated from explosions, collisions, or faulty payload assembly.

Loading next visibility...
Identifier
1646, 1965-082H
Orbit
LEO
Country
Flag of USUS
Related business
Manufacturer
Unknown
Mission
Spacecraft
Bus & Motor
Unknown
Mass
Unknown
Launch date (UTC)
1965-10-15 (60 years ago)
Launch vehicle
Unknown
Launch site
Air Force Eastern Test Range (AFETR)
Object type
Payload
Rocket body
Debris
Shape & HBR
Unknown shape, 1.2 m
Radar Cross Section
Large (>1 m²)

Expand to show TLE details & history
Last TLE update: 20 hours ago

TLE from 20 hours ago
0 TITAN 3C TRANSTAGE DEB
1 01646U 65082H   25309.07058834  .00001418  00000-0  19266-3 0  9993
2 01646  32.3096 267.2953 0002711 352.1395   7.9215 14.76917534187013
Epoch: 2025-11-05T01:41Z
TLE epoch observation values (Epoch: 2025-11-05T01:41:38.832Z)
Latitude
Longitude
-162.66503°
Altitude
635.846 km
Speed
7.544 km/s
True Right ascension
17h 49m 10s
True Declination
0° 00' 00"
Sunlit
Object was in daylight at epoch
Visualization orbit readout
Latitude
Unknown
Longitude
Unknown
Altitude
Unknown
Speed
Unknown
Apparent Right ascension
Unknown
Apparent Declination
Unknown
Sunlit
N/A
Visualization observer readout
Local Sidereal Time
17:53:24
Azimuth
Unknown
Elevation
Unknown
Doppler factor
Unknown
Orbital elements
Apogee altitude
644.567 km
Perigee altitude
640.76 km
Semi-major axis
7,020.8 km
Eccentricity
0.00027
Inclination
32.3096°
RAAN
267.2953°
Arg. of periapsis
352.1395°
True anomaly
7.92578°
Mean anomaly
7.9215°
Eccentric anomaly
7.92364°
Mean motion
3.68946 °/min
Orbital period
97.58 mins
BSTAR
0.00019266

Documentation

Showing up to 5 results
|